Flag for Germany Weather past 2 weeks in Sankt Ingbert, Saarland, Germany

Now
36 °F

Light rain. Low clouds.


Feels Like: 29 °F
Forecast: 29 / 34 °F
Wind: 8 mph from Southwest

Location: Saarbruecken / Ensheim

Current Time: Jan 29, 2015 at 11:44:42 PM

Latest Report: Jan 29, 2015 at 11:00 PM


Visibility: 6 mi

Pressure: 28.82 "Hg

Humidity: 97%

Dew point: 35 °F

Location of Sankt IngbertLocation

Historic Weather in Sankt Ingbert — Graph

°F

Sankt Ingbert temperature yesterday

Maximum temperature yesterday: 38 °F (at 9:00 PM)
Minimum temperature yesterday: 34 °F (at 6:00 AM)
Average temperature yesterday: 35 °F

Past Weeks' High & Low Weather Summary

 TemperatureHumidityPressure
High49 °F (Jan 15, 7:00 PM)100% (Jan 16, 8:00 PM)30.50 "Hg (Jan 16, 8:00 PM)
Low24 °F (Jan 25, 4:00 AM)68% (Jan 15, 1:00 PM)28.85 "Hg (Jan 29, 10:00 PM)
Average33 °F94%30.01 "Hg
* Reported Jan 14 10:00 PM — Jan 29 10:00 PM, Sankt Ingbert, Weather by CustomWeather, © 2014

Note: Actual official high and low records may vary slightly from our data, if they occured in-between our weather recording intervals... More about our weather records

Advertising

Sankt Ingbert weather history for previous 24 hours

 ConditionsComfort  
Time TempWeatherWind HumidityBarometerVisibility
10:00 PM
Jan 29
35 °FLight rain. Low clouds.7 mph97%28.85 "Hg6 mi
9:00 PM35 °FLight rain. Low clouds.8 mph97%28.88 "Hg6 mi
8:00 PM35 °FLight rain. Low clouds.8 mph97%28.94 "Hg6 mi
7:00 PM36 °FLight rain. Low clouds.10 mph96%28.97 "Hg6 mi
6:00 PM36 °FLight rain. Low clouds.8 mph95%29.03 "Hg6 mi
5:00 PM36 °FLight rain. Low clouds.8 mph96%29.09 "Hg6 mi
4:00 PM37 °FLight rain. Low clouds.8 mph96%29.15 "Hg6 mi
3:00 PM36 °FLight rain. Low clouds.8 mph97%29.21 "Hg6 mi
2:00 PM36 °FDrizzle. Low clouds.7 mph97%29.26 "Hg5 mi
1:00 PM35 °FLight snow. Low clouds.9 mph97%29.32 "Hg3 mi
12:00 PM33 °FSnow. Low clouds.5 mph98%29.35 "Hg2 mi
11:00 AM34 °FLight snow. Low clouds.8 mph96%29.41 "Hg6 mi
10:00 AM34 °FLight snow. Low clouds.9 mph93%29.44 "Hg4 mi
9:00 AM34 °FLight snow. Low clouds.7 mph93%29.47 "Hg3 mi
8:00 AM34 °FLow clouds.7 mph92%29.50 "Hg11 mi
7:00 AM33 °FOvercast.7 mph91%29.54 "Hg14 mi
6:00 AM32 °FPassing clouds.6 mph91%29.56 "Hg16 mi
5:00 AM32 °FPassing clouds.5 mph90%29.59 "Hg16 mi
4:00 AM33 °FPassing clouds.3 mph91%29.61 "Hg16 mi
3:00 AM33 °FPassing clouds.7 mph88%29.62 "Hg16 mi
2:00 AM34 °FPassing clouds.6 mph88%29.62 "Hg16 mi
1:00 AM36 °FOvercast.8 mph89%29.62 "Hg16 mi
12:00 AM37 °FLight rain. Overcast.5 mph91%29.62 "Hg16 mi
11:00 PM
Jan 28
37 °FLow clouds.7 mph88%29.61 "Hg16 mi
Weather by CustomWeather, © 2014

See weather overviewHow to use our weather pages